Theta_e
314 315 318 321 324 323 323 321 327 326 327 325 322 327 333 343 344 345 349 350 349 347 346 346 345 345 344 344 344 344 342 341
314 314 316 320 317 323 324 327 328 327 331 327 322 327 334 341 343 341 345 349 349 348 346 346 346 345 345 344 343 343 344 342
316 315 315 319 320 319 322 323 327 329 329 317 321 330 331 328 335 344 346 346 348 348 347 346 346 345 345 344 343 343 345 344
315 312 312 314 314 315 326 326 322 328 323 316 323 326 323 323 324 329 336 340 345 347 345 346 346 346 346 345 344 344 344 345
316 315 313 315 314 313 312 316 322 326 319 316 323 321 319 318 317 317 320 326 331 342 342 343 345 345 344 344 345 344 344 344
316 316 314 316 314 314 315 319 318 318 318 318 321 320 316 316 314 313 313 316 320 328 334 341 342 342 343 343 344 345 344 344
314 313 314 314 314 314 315 315 318 317 317 318 319 318 315 314 314 314 311 311 312 313 316 325 337 341 342 342 343 343 346 345
315 313 313 314 313 313 313 313 314 315 317 315 315 315 316 315 314 313 313 312 311 312 311 312 318 330 334 338 342 342 344 344
315 313 312 312 313 313 314 316 315 316 317 314 315 313 313 312 313 312 311 311 311 311 311 311 311 312 320 330 341 344 342 340
314 312 313 313 311 311 315 315 315 316 313 311 310 310 310 312 311 311 310 310 310 310 311 312 311 311 312 316 327 340 345 341
316 313 312 312 311 311 313 313 310 311 310 309 308 309 313 310 309 308 308 308 308 309 310 311 311 311 311 313 314 330 336 342
315 315 315 313 309 308 310 314 308 308 308 308 307 313 313 309 307 307 307 307 308 309 309 310 311 311 311 311 312 313 323 330
316 316 315 311 308 309 315 314 307 307 306 306 307 306 305 305 306 306 306 306 307 308 310 310 310 310 310 311 311 312 312 326
313 314 315 309 308 312 309 307 306 306 305 305 305 305 305 305 306 306 305 306 307 309 309 310 310 310 310 310 310 310 312 311
312 314 308 308 308 307 306 306 306 305 304 304 304 304 304 305 305 305 305 306 307 308 309 310 310 310 310 310 310 310 310 312
309 310 307 308 307 307 306 306 305 305 304 305 305 304 304 304 304 304 304 304 305 307 308 308 308 309 309 310 311 311 310 310
310 309 307 306 307 307 306 306 306 306 306 306 306 304 304 304 303 303 302 302 302 305 306 307 308 308 308 308 309 312 312 311
315 309 310 308 306 306 307 307 307 308 307 307 306 305 304 304 304 303 303 302 302 303 304 304 305 306 306 307 308 313 314 313
309 307 307 306 306 306 306 306 307 307 306 306 306 306 305 305 305 303 303 302 302 303 303 302 303 305 305 307 308 312 317 317
Wind_Speed
10 3 2 6 8 1 4 2 8 4 3 5 15 18 25 24 16 6 18 27 29 29 32 34 39 41 39 34 31 27 34 32
5 2 11 1 4 7 3 7 9 3 4 5 16 18 19 22 25 12 11 19 22 27 27 30 34 36 37 36 33 30 31 34
1 7 6 1 3 2 1 2 6 7 5 6 10 12 14 21 24 24 12 6 14 17 20 23 27 28 33 35 36 35 33 35
5 2 4 8 4 1 7 6 2 1 5 7 10 14 18 21 24 24 24 20 14 4 10 15 23 26 31 32 34 36 35 32
3 4 2 4 6 3 2 1 2 6 6 9 13 17 20 21 23 26 27 28 23 15 13 8 4 12 20 26 28 31 35 36
1 4 2 3 5 7 3 2 7 3 11 8 11 12 16 18 20 26 29 28 28 27 21 12 4 4 9 18 18 20 25 29
7 5 2 3 1 4 5 4 2 10 8 6 8 9 11 13 16 21 27 28 26 25 24 22 15 9 2 10 20 22 22 25
3 4 3 3 4 2 1 1 3 5 6 3 5 5 8 12 14 17 19 21 23 21 22 22 21 15 10 7 7 18 26 27
4 3 2 5 1 2 4 5 2 5 5 6 5 11 11 12 9 14 17 20 21 21 20 21 21 18 14 10 9 7 18 27
4 4 5 5 3 2 4 7 5 4 6 7 10 15 17 7 5 12 19 22 23 23 23 19 19 17 15 13 10 10 13 16
4 5 2 3 1 1 1 4 5 4 8 10 14 14 1 4 10 19 22 23 23 23 25 25 22 20 16 15 14 8 8 9
3 3 6 5 5 1 3 4 3 4 7 12 14 5 3 10 24 29 26 26 27 27 27 27 25 24 21 17 14 14 12 8
3 3 1 6 5 5 3 4 1 2 5 7 7 10 22 26 26 24 25 27 28 28 26 25 27 28 26 22 19 16 16 14
2 2 5 12 6 5 5 4 3 1 4 7 11 17 22 25 25 24 26 25 23 25 30 26 26 27 29 29 23 21 19 19
6 3 2 11 3 3 3 3 2 2 5 9 12 17 22 24 26 26 26 25 24 24 26 28 25 25 29 30 30 25 24 22
1 7 13 12 10 6 6 4 5 4 6 9 12 18 23 24 25 27 27 27 25 26 27 29 29 27 29 30 30 31 28 28
5 8 4 12 15 10 10 9 8 8 10 12 14 17 19 23 25 27 32 30 29 26 28 30 30 33 32 35 33 32 33 31
5 9 4 5 10 12 11 11 9 9 9 11 12 15 17 20 23 29 31 30 31 31 30 30 33 34 36 35 33 32 34 34
4 12 8 8 11 11 10 8 8 9 9 10 11 14 18 23 25 25 29 32 33 33 34 35 36 32 30 29 29 28 28 30
Wind_Direction
53 31 287 157 202 283 115 69 202 151 110 180 11 15 17 13 15 246 213 210 209 206 206 210 218 223 225 229 231 233 226 228
15 317 53 297 115 181 218 176 184 119 94 27 5 3 6 15 13 0 218 211 207 205 207 210 219 225 229 233 236 238 233 231
96 37 359 151 133 68 153 309 182 161 111 21 29 25 22 20 23 35 54 193 206 204 210 211 218 222 227 233 236 239 240 234
96 84 338 49 57 344 227 179 64 29 107 43 57 54 43 38 36 40 49 56 68 169 211 217 227 228 233 233 236 239 242 244
166 191 155 53 34 62 95 12 159 203 133 68 69 57 48 43 37 39 49 56 57 82 92 103 190 225 234 236 238 241 243 246
126 77 88 110 41 33 14 197 142 67 128 74 64 56 50 48 47 44 48 53 59 60 61 76 129 169 221 233 237 239 248 251
77 80 97 130 58 28 47 98 301 138 125 70 62 65 52 50 47 44 39 41 39 41 43 40 58 82 111 230 232 235 241 244
86 27 4 277 324 280 226 168 153 147 124 3 47 48 39 28 28 34 27 19 23 22 26 28 29 28 37 22 248 236 238 240
148 12 317 255 329 56 107 61 338 194 68 12 346 351 348 346 357 10 7 1 360 1 4 4 10 12 17 9 3 303 252 240
140 144 215 69 47 2 91 79 37 81 48 18 344 321 312 320 8 353 345 344 342 341 340 343 349 351 357 4 7 358 334 269
186 201 87 233 55 30 307 106 35 7 353 351 340 319 340 118 359 339 331 328 325 325 324 323 327 331 336 341 360 340 20 292
182 213 207 98 124 123 162 224 77 28 358 345 347 311 17 314 321 316 317 316 317 316 316 314 314 315 315 320 327 339 325 339
189 251 206 148 126 152 222 90 136 344 337 335 321 299 296 304 304 306 309 311 307 306 308 310 310 307 301 299 304 309 312 296
152 213 249 163 147 214 95 138 152 266 313 315 312 314 313 309 307 308 309 309 306 305 297 302 304 303 299 294 291 291 289 294
213 224 141 171 167 139 158 154 168 279 303 308 314 321 322 316 312 311 311 308 303 300 297 295 300 299 297 296 292 279 276 269
228 201 220 215 233 219 197 186 202 252 289 298 308 320 320 320 317 312 309 306 303 296 291 291 293 295 294 297 293 285 272 267
244 245 210 229 217 216 211 211 234 261 278 289 298 309 318 321 323 318 317 313 309 298 293 288 290 292 293 292 294 287 277 267
224 195 178 165 177 189 199 214 236 253 272 279 286 301 312 313 318 330 326 325 312 302 295 291 291 290 289 289 290 287 280 270
210 184 184 171 191 211 219 234 246 262 282 284 290 304 313 313 313 311 313 317 319 307 301 296 296 291 288 285 287 281 280 269